Weather History for Nouasseur, Morocco

Change the Weather History Date:

Friday, November 23, 2012

  Actual Average Record
Temperature  
Mean Temperature 62 °F -  
Max Temperature 78 °F 64 °F 78 °F (2012)
Min Temperature 46 °F 46 °F 39 °F (1999)
Degree Days  
Heating Degree Days 3    
Growing Degree Days 12 (Base 50)    
Moisture  
Dew Point 53 °F    
Average Humidity 79    
Maximum Humidity 100    
Minimum Humidity 38    
Precipitation  
Precipitation 0.00 in - - ()
Sea Level Pressure  
Sea Level Pressure 30.08 in    
Wind  
Wind Speed 3 mph ()    
Max Wind Speed 9 mph    
Max Gust Speed -    
Visibility 3.1 miles    
Events Fog    
Averages and records for this station are not official NWS values.
T = Trace of Precipitation, MM = Missing Value Source: Averaged Metar Reports

Daily Weather History Graph

Daily Weather History Graph

Search for Another Location

Airport:

Trip Planner

Search our weather history database for the weather conditions in past years. The results will help you decide how hot, cold, wet, or windy it might be!

Date:

Astronomy

Nov. 23, 2012 Rise Set
Actual Time 7:09 AM WET 5:24 PM WET
Civil Twilight 6:42 AM WET 5:51 PM WET
Nautical Twilight 6:12 AM WET 6:21 PM WET
Astronomical Twilight 5:42 AM WET 6:51 PM WET
Moon 2:21 PM WET (11/23) 2:27 AM WET (11/23)
Length of Visible Light 11h 08m
Length of Day
10h 14m
Waxing Gibbous, 78% of the Moon is Illuminated
Nov 23
Waxing Gibbous
Nov 28
Full
Dec 6
Last Quarter
Dec 13
New
Dec 20
First Quarter

Hourly Weather History & Observations

Time (WET) Temp. Windchill Dew Point Humidity Pressure Visibility Wind Dir Wind Speed Gust Speed Precip Events Conditions
12:00 AM 53 °F - 53 °F 100% 30.14 in 0 mi Calm Calm - - Fog Partial Fog
12:00 AM 53.6 °F - 53.6 °F 100% 30.12 in 0.1 mi Calm Calm - N/A Fog Fog
12:30 AM 51.8 °F - 51.8 °F 100% 30.12 in 0.2 mi Calm Calm - N/A Fog Fog
1:00 AM 51.8 °F - 50.0 °F 94% 30.12 in 0.2 mi East 1.2 mph - N/A Fog Fog
1:30 AM 51.8 °F - 50.0 °F 94% 30.09 in 0.2 mi SE 2.3 mph - N/A Fog Fog
2:00 AM 50.0 °F - 50.0 °F 100% 30.09 in 0.3 mi ESE 2.3 mph - N/A Fog Fog
2:30 AM 50.0 °F - 50.0 °F 100% 30.09 in 0.3 mi Calm Calm - N/A Fog Fog
3:00 AM 50 °F - 49 °F 95% 30.12 in 0 mi East 2.3 mph - - Fog Fog
3:00 AM 50.0 °F - 48.2 °F 94% 30.09 in 0.3 mi East 2.3 mph - N/A Fog Fog
3:30 AM 50.0 °F - 48.2 °F 94% 30.09 in - ESE 2.3 mph - N/A   Mostly Cloudy
4:00 AM 50.0 °F - 48.2 °F 94% 30.09 in 0.4 mi Calm Calm - N/A Fog Fog
4:30 AM 48.2 °F - 48.2 °F 100% 30.09 in 0.2 mi NE 1.2 mph - N/A   Mostly Cloudy
5:00 AM 48.2 °F - 48.2 °F 100% 30.09 in 0.3 mi Calm Calm - N/A   Mostly Cloudy
5:30 AM 46.4 °F - 46.4 °F 100% 30.09 in 0.7 mi Variable 2.3 mph - N/A   Mostly Cloudy
5:58 AM 48.2 °F - 46.4 °F 93% 30.09 in 1.2 mi SE 5.8 mph - N/A   Scattered Clouds
6:00 AM 47 °F - 47 °F 98% 30.12 in 1 mi SE 5.8 mph - -   Mist
6:00 AM 46.4 °F 43.5 °F 46.4 °F 100% 30.09 in 0.7 mi SE 5.8 mph - N/A   Mostly Cloudy
6:30 AM 46.4 °F 43.5 °F 46.4 °F 100% 30.09 in 1.2 mi SE 5.8 mph - N/A   Scattered Clouds
7:00 AM 48.2 °F - 48.2 °F 100% 30.09 in - SE 5.8 mph - N/A   Scattered Clouds
7:29 AM 48.2 °F - 48.2 °F 100% 30.09 in 3.7 mi SE 5.8 mph - N/A   Scattered Clouds
7:30 AM 48.2 °F - 48.2 °F 100% 30.09 in 3.7 mi SE 5.8 mph - N/A   Scattered Clouds
8:00 AM 50.0 °F - 50.0 °F 100% 30.09 in 5.0 mi SE 4.6 mph - N/A   Scattered Clouds
8:30 AM 51.8 °F - 51.8 °F 100% 30.09 in 5.6 mi SE 4.6 mph - N/A   Scattered Clouds
9:00 AM 55 °F - 54 °F 94% 30.12 in 6 mi SE 4.6 mph - -   Clear
9:00 AM 55.4 °F - 53.6 °F 94% 30.12 in 6.2 mi SE 4.6 mph - N/A   Scattered Clouds
9:30 AM 59.0 °F - 57.2 °F 94% 30.12 in - SE 3.5 mph - N/A   Clear
10:00 AM 62.6 °F - 57.2 °F 82% 30.12 in - SSE 3.5 mph - N/A   Clear
10:30 AM 66.2 °F - 59.0 °F 78% 30.12 in - Calm Calm - N/A   Clear
11:00 AM 68.0 °F - 57.2 °F 68% 30.12 in - Calm Calm - N/A   Clear
11:30 AM 71.6 °F - 55.4 °F 57% 30.09 in - Calm Calm - N/A   Clear
12:00 PM 73 °F - 55 °F 43% 30.08 in 6 mi SSE 3.5 mph - -   Clear
12:00 PM 73.4 °F - 55.4 °F 53% 30.09 in - SSE 3.5 mph - N/A   Clear
12:30 PM 73.4 °F - 55.4 °F 53% 30.09 in - Variable 2.3 mph - N/A   Clear
1:00 PM 75.2 °F - 57.2 °F 53% 30.06 in - NE 3.5 mph - N/A   Clear
1:30 PM 75.2 °F - 57.2 °F 53% 30.06 in - ENE 2.3 mph - N/A   Clear
2:00 PM 77.0 °F - 55.4 °F 47% 30.04 in - East 3.5 mph - N/A   Clear
2:30 PM 77.0 °F - 55.4 °F 47% 30.04 in - East 3.5 mph - N/A   Clear
3:00 PM 78 °F - 57 °F 38% 30.02 in 6 mi East 2.3 mph - -   Partly Cloudy
3:00 PM 78.8 °F - 57.2 °F 47% 30.04 in - Variable 2.3 mph - N/A   Clear
3:30 PM 78.8 °F - 51.8 °F 39% 30.04 in - South 9.2 mph - N/A   Clear
4:00 PM 77.0 °F - 53.6 °F 44% 30.04 in - South 8.1 mph - N/A   Clear
4:30 PM 77.0 °F - 55.4 °F 47% 30.04 in - South 6.9 mph - N/A   Clear
5:00 PM 73.4 °F - 57.2 °F 57% 30.04 in - South 5.8 mph - N/A   Clear
5:30 PM 69.8 °F - 55.4 °F 60% 30.04 in - SSW 4.6 mph - N/A   Clear
6:00 PM 70 °F - 56 °F 51% 30.04 in 6 mi WSW 2.3 mph - -  
6:00 PM 69.8 °F - 55.4 °F 60% 30.06 in - WSW 2.3 mph - N/A   Clear
6:30 PM 68.0 °F - 57.2 °F 68% 30.06 in 6.2 mi NW 4.6 mph - N/A   Unknown
7:00 PM 64.4 °F - 57.2 °F 77% 30.06 in 5.6 mi Variable 3.5 mph - N/A   Unknown
7:30 PM 64.4 °F - 57.2 °F 77% 30.06 in 4.3 mi ESE 3.5 mph - N/A   Unknown
8:00 PM 62.6 °F - 57.2 °F 82% 30.06 in 3.7 mi SSE 5.8 mph - N/A   Unknown
8:30 PM 59.0 °F - 55.4 °F 88% 30.09 in 4.3 mi South 5.8 mph - N/A   Partly Cloudy
9:00 PM 59 °F - 55 °F 81% 30.09 in 4 mi South 6.9 mph - -   Scattered Clouds
9:00 PM 59.0 °F - 55.4 °F 88% 30.09 in 4.3 mi South 5.8 mph - N/A   Partly Cloudy
9:30 PM 59.0 °F - 53.6 °F 82% 30.09 in 6.2 mi South 5.8 mph - N/A   Partly Cloudy
10:00 PM 57.2 °F - 51.8 °F 82% 30.09 in 6.2 mi South 6.9 mph - N/A   Partly Cloudy
10:30 PM 57.2 °F - 51.8 °F 82% 30.09 in 6.2 mi South 5.8 mph - N/A   Partly Cloudy
11:00 PM 57.2 °F - 51.8 °F 82% 30.09 in 6.2 mi South 4.6 mph - N/A   Partly Cloudy
11:30 PM 55.4 °F - 50.0 °F 82% 30.09 in 6.2 mi South 5.8 mph - N/A   Partly Cloudy